CDG4805 ZSQD-ZSOF

Flight info

Callsign CDG4805
Flight time 1h 11m
Altitude 36100
Route MABEB DCT GURIL DCT RUXEL W178 OF/K0846S1130 W95 NOBEM/K0854S1100 W73 MADUK MAD01A
Aircraft B738/M-SDGIJ1LRWY/SB1

Departure

Time 2026-04-23 14:57
Airport Qingdao Jiaodong International Airport (ZSQD)

Arrival

Time 2026-04-23 16:09
Airport Hefei Xinqiao International Airport (ZSOF)
Time Latitude Longitude Altitude Speed Heading
2026-04-23 14:17 36.36364 120.08270 37 ft 0 kts 192°
2026-04-23 14:46 36.36379 120.08274 37 ft 2 kts 192°
2026-04-23 14:46 36.36393 120.08278 37 ft 2 kts 192°
2026-04-23 14:46 36.36408 120.08282 37 ft 2 kts 192°
2026-04-23 14:46 36.36423 120.08286 37 ft 2 kts 192°
2026-04-23 14:47 36.36437 120.08293 37 ft 2 kts 224°
2026-04-23 14:47 36.36445 120.08308 37 ft 2 kts 254°
2026-04-23 14:47 36.36446 120.08324 37 ft 0 kts 279°
2026-04-23 14:47 36.36445 120.08332 37 ft 1 kts 283°
2026-04-23 14:48 36.36445 120.08333 37 ft 0 kts 283°
2026-04-23 14:49 36.36446 120.08325 37 ft 3 kts 283°
2026-04-23 14:49 36.36451 120.08298 37 ft 2 kts 282°
2026-04-23 14:50 36.36454 120.08281 37 ft 4 kts 282°
2026-04-23 14:50 36.36469 120.08194 37 ft 10 kts 282°
2026-04-23 14:50 36.36485 120.08094 37 ft 11 kts 271°
2026-04-23 14:50 36.36465 120.07999 37 ft 13 kts 252°
2026-04-23 14:51 36.36439 120.07897 37 ft 11 kts 252°
2026-04-23 14:51 36.36415 120.07803 37 ft 11 kts 252°
2026-04-23 14:51 36.36394 120.07720 37 ft 8 kts 253°
2026-04-23 14:51 36.36410 120.07664 37 ft 6 kts 323°
2026-04-23 14:52 36.36446 120.07643 37 ft 5 kts 341°
2026-04-23 14:52 36.36500 120.07621 37 ft 10 kts 342°
2026-04-23 14:52 36.36572 120.07593 37 ft 9 kts 342°
2026-04-23 14:52 36.36632 120.07568 37 ft 8 kts 342°
2026-04-23 14:53 36.36681 120.07550 37 ft 8 kts 343°
2026-04-23 14:53 36.36746 120.07525 37 ft 11 kts 343°
2026-04-23 14:53 36.36832 120.07493 37 ft 14 kts 343°
2026-04-23 14:53 36.36939 120.07452 37 ft 17 kts 343°
2026-04-23 14:54 36.37049 120.07407 37 ft 15 kts 341°
2026-04-23 14:54 36.37127 120.07374 37 ft 8 kts 341°
2026-04-23 14:54 36.37158 120.07338 37 ft 5 kts 289°
2026-04-23 14:54 36.37159 120.07302 37 ft 4 kts 257°
2026-04-23 14:55 36.37143 120.07248 37 ft 8 kts 239°
2026-04-23 14:55 36.37089 120.07188 37 ft 10 kts 209°
2026-04-23 14:55 36.37038 120.07193 37 ft 0 kts 162°
2026-04-23 14:56 36.37035 120.07194 37 ft 4 kts 162°
2026-04-23 14:56 36.36764 120.07298 37 ft 76 kts 162°
2026-04-23 14:56 36.36058 120.07577 38 ft 136 kts 162°
2026-04-23 14:56 36.35061 120.07943 354 ft 146 kts 169°
2026-04-23 14:57 36.34097 120.08242 585 ft 142 kts 162°
2026-04-23 14:57 36.33182 120.08616 755 ft 141 kts 162°
2026-04-23 14:57 36.32243 120.09004 1383 ft 142 kts 164°
2026-04-23 14:57 36.31283 120.09389 1917 ft 151 kts 166°
2026-04-23 14:58 36.30240 120.09753 2351 ft 165 kts 167°
2026-04-23 14:58 36.29116 120.10123 2969 ft 168 kts 166°
2026-04-23 14:58 36.27951 120.10559 3434 ft 181 kts 164°
2026-04-23 14:58 36.26699 120.11038 3877 ft 197 kts 163°
2026-04-23 14:59 36.25346 120.11602 4315 ft 214 kts 161°
2026-04-23 14:59 36.23900 120.12236 4818 ft 229 kts 160°
2026-04-23 14:59 36.22339 120.12919 5274 ft 247 kts 160°
2026-04-23 14:59 36.20665 120.13645 5806 ft 262 kts 159°
2026-04-23 15:00 36.18880 120.14417 6325 ft 278 kts 159°
2026-04-23 15:00 36.17060 120.15201 7057 ft 284 kts 159°
2026-04-23 15:00 36.15167 120.16016 7857 ft 287 kts 159°
2026-04-23 15:00 36.13272 120.16832 8613 ft 292 kts 159°
2026-04-23 15:01 36.11360 120.17656 9363 ft 296 kts 159°
2026-04-23 15:01 36.09425 120.18489 10093 ft 300 kts 159°
2026-04-23 15:01 36.07401 120.19362 10661 ft 311 kts 159°
2026-04-23 15:01 36.05372 120.20235 11386 ft 315 kts 158°
2026-04-23 15:02 36.03285 120.21132 12167 ft 319 kts 158°
2026-04-23 15:02 36.01662 120.21828 12769 ft 321 kts 158°
2026-04-23 15:02 35.99548 120.22736 13547 ft 325 kts 158°
2026-04-23 15:02 35.97391 120.23609 14333 ft 328 kts 162°
2026-04-23 15:03 35.95130 120.24013 15095 ft 334 kts 180°
2026-04-23 15:03 35.92838 120.23437 15870 ft 338 kts 202°
2026-04-23 15:03 35.90836 120.22001 16620 ft 340 kts 217°
2026-04-23 15:03 35.88984 120.20170 17367 ft 342 kts 220°
2026-04-23 15:04 35.87134 120.18274 18055 ft 346 kts 220°
2026-04-23 15:04 35.85293 120.16379 18741 ft 348 kts 221°
2026-04-23 15:04 35.83432 120.14468 19406 ft 351 kts 221°
2026-04-23 15:04 35.81537 120.12529 20030 ft 355 kts 221°
2026-04-23 15:05 35.79646 120.10601 20609 ft 359 kts 221°
2026-04-23 15:05 35.77706 120.08625 21220 ft 362 kts 221°
2026-04-23 15:05 35.75782 120.06667 21803 ft 365 kts 221°
2026-04-23 15:05 35.73795 120.04647 22366 ft 368 kts 222°
2026-04-23 15:06 35.71844 120.02664 22935 ft 370 kts 222°
2026-04-23 15:06 35.69847 120.00637 23499 ft 372 kts 223°
2026-04-23 15:06 35.67836 119.98596 24041 ft 375 kts 222°
2026-04-23 15:06 35.65835 119.96568 24652 ft 375 kts 223°
2026-04-23 15:07 35.63824 119.94530 25219 ft 376 kts 223°
2026-04-23 15:07 35.61811 119.92490 25754 ft 378 kts 223°
2026-04-23 15:07 35.59782 119.90427 26312 ft 378 kts 223°
2026-04-23 15:07 35.57736 119.88341 26829 ft 380 kts 223°
2026-04-23 15:08 35.55721 119.86285 27341 ft 380 kts 224°
2026-04-23 15:08 35.53674 119.84198 27869 ft 381 kts 224°
2026-04-23 15:08 35.51635 119.82121 28336 ft 382 kts 224°
2026-04-23 15:09 35.47561 119.77977 29297 ft 383 kts 224°
2026-04-23 15:09 35.45489 119.75871 29713 ft 386 kts 224°
2026-04-23 15:09 35.43435 119.73785 30188 ft 385 kts 224°
2026-04-23 15:09 35.41360 119.71670 30570 ft 386 kts 224°
2026-04-23 15:10 35.39949 119.70226 30837 ft 386 kts 224°
2026-04-23 15:10 35.37195 119.67405 31239 ft 390 kts 224°
2026-04-23 15:10 35.35104 119.65264 31636 ft 389 kts 224°
2026-04-23 15:10 35.33025 119.63138 31919 ft 392 kts 224°
2026-04-23 15:11 35.30896 119.60963 32335 ft 390 kts 224°
2026-04-23 15:11 35.28828 119.58854 32678 ft 391 kts 224°
2026-04-23 15:11 35.26718 119.56701 32964 ft 393 kts 224°
2026-04-23 15:11 35.24593 119.54536 33209 ft 396 kts 224°
2026-04-23 15:12 35.22505 119.52411 33596 ft 395 kts 224°
2026-04-23 15:12 35.20374 119.50244 33859 ft 397 kts 224°
2026-04-23 15:12 35.18241 119.48077 34156 ft 398 kts 224°
2026-04-23 15:12 35.16106 119.45908 34411 ft 400 kts 224°
2026-04-23 15:13 35.13967 119.43736 34618 ft 402 kts 224°
2026-04-23 15:13 35.11832 119.41573 34928 ft 401 kts 224°
2026-04-23 15:13 35.09666 119.39378 35178 ft 401 kts 224°
2026-04-23 15:13 35.07516 119.37202 35330 ft 404 kts 224°
2026-04-23 15:14 35.05332 119.34991 35620 ft 403 kts 224°
2026-04-23 15:14 35.03176 119.32812 35884 ft 404 kts 224°
2026-04-23 15:14 35.01017 119.30630 36097 ft 406 kts 224°
2026-04-23 15:15 34.96643 119.26214 36125 ft 406 kts 224°
2026-04-23 15:15 34.92282 119.21823 36134 ft 403 kts 224°
2026-04-23 15:16 34.87981 119.17497 36136 ft 403 kts 224°
2026-04-23 15:16 34.83623 119.13115 36137 ft 404 kts 224°
2026-04-23 15:17 34.79291 119.08767 36146 ft 403 kts 224°
2026-04-23 15:17 34.74971 119.04436 36135 ft 403 kts 224°
2026-04-23 15:18 34.70612 119.00069 36133 ft 403 kts 224°
2026-04-23 15:18 34.66295 118.95754 36137 ft 402 kts 224°
2026-04-23 15:19 34.61904 118.91478 36138 ft 404 kts 221°
2026-04-23 15:19 34.56799 118.88403 36148 ft 420 kts 202°
2026-04-23 15:20 34.51008 118.87099 36115 ft 425 kts 194°
2026-04-23 15:20 34.45151 118.86208 36129 ft 427 kts 194°
2026-04-23 15:21 34.39257 118.85333 36128 ft 426 kts 194°
2026-04-23 15:21 34.33397 118.84429 36142 ft 424 kts 194°
2026-04-23 15:22 34.27525 118.83496 36126 ft 425 kts 194°
2026-04-23 15:22 34.21637 118.82549 36124 ft 426 kts 195°
2026-04-23 15:23 34.15793 118.81609 36132 ft 422 kts 195°
2026-04-23 15:23 34.09940 118.80661 36130 ft 426 kts 195°
2026-04-23 15:24 34.04054 118.79718 36233 ft 425 kts 195°
2026-04-23 15:24 33.98215 118.78793 36148 ft 418 kts 195°
2026-04-23 15:25 33.92417 118.77867 36128 ft 422 kts 195°
2026-04-23 15:25 33.86597 118.76941 36136 ft 421 kts 195°
2026-04-23 15:26 33.80763 118.76009 36125 ft 422 kts 195°
2026-04-23 15:26 33.77854 118.75545 35919 ft 420 kts 195°
2026-04-23 15:26 33.74933 118.75077 36247 ft 422 kts 195°
2026-04-23 15:27 33.69101 118.74137 36136 ft 419 kts 195°
2026-04-23 15:27 33.63321 118.73212 36137 ft 421 kts 195°
2026-04-23 15:28 33.57528 118.72288 36133 ft 418 kts 195°
2026-04-23 15:28 33.51699 118.71355 36139 ft 421 kts 195°
2026-04-23 15:29 33.45876 118.70427 36138 ft 418 kts 195°
2026-04-23 15:29 33.40076 118.69501 36143 ft 420 kts 195°
2026-04-23 15:30 33.34267 118.68573 36137 ft 418 kts 195°
2026-04-23 15:30 33.28485 118.67653 36141 ft 418 kts 196°
2026-04-23 15:31 33.22680 118.66724 36142 ft 418 kts 195°
2026-04-23 15:31 33.16931 118.65807 36142 ft 415 kts 196°
2026-04-23 15:32 33.11215 118.64883 36144 ft 417 kts 196°
2026-04-23 15:32 33.05454 118.63950 36142 ft 416 kts 196°
2026-04-23 15:33 32.99689 118.63023 36144 ft 417 kts 196°
2026-04-23 15:33 32.93982 118.62110 36148 ft 412 kts 196°
2026-04-23 15:34 32.88619 118.61245 36148 ft 417 kts 196°
2026-04-23 15:34 32.82906 118.60329 36147 ft 416 kts 197°
2026-04-23 15:35 32.77160 118.59411 36146 ft 414 kts 197°
2026-04-23 15:35 32.71429 118.58526 36146 ft 415 kts 195°
2026-04-23 15:36 32.65575 118.58557 36148 ft 431 kts 181°
2026-04-23 15:36 32.59629 118.60167 36148 ft 441 kts 174°
2026-04-23 15:37 32.53754 118.62231 36148 ft 442 kts 173°
2026-04-23 15:37 32.47851 118.64341 36151 ft 442 kts 174°
2026-04-23 15:38 32.41958 118.66398 36150 ft 441 kts 174°
2026-04-23 15:38 32.36058 118.68419 36148 ft 441 kts 174°
2026-04-23 15:39 32.30172 118.70416 36149 ft 439 kts 174°
2026-04-23 15:39 32.24271 118.72401 36147 ft 440 kts 175°
2026-04-23 15:40 32.18376 118.74381 36148 ft 439 kts 175°
2026-04-23 15:40 32.12490 118.76162 36149 ft 427 kts 181°
2026-04-23 15:40 32.09588 118.76462 36148 ft 413 kts 191°
2026-04-23 15:41 32.06770 118.76112 36149 ft 404 kts 201°
2026-04-23 15:41 32.04082 118.75257 36151 ft 391 kts 207°
2026-04-23 15:41 32.01571 118.74113 36153 ft 386 kts 212°
2026-04-23 15:42 31.97129 118.70814 36153 ft 372 kts 228°
2026-04-23 15:42 31.93767 118.66285 36154 ft 365 kts 238°
2026-04-23 15:43 31.91271 118.61123 36158 ft 362 kts 247°
2026-04-23 15:43 31.89261 118.55743 36157 ft 360 kts 248°
2026-04-23 15:44 31.87244 118.50319 36157 ft 362 kts 248°
2026-04-23 15:44 31.85162 118.44830 36157 ft 372 kts 247°
2026-04-23 15:45 31.83071 118.39392 35781 ft 357 kts 247°
2026-04-23 15:45 31.82059 118.36774 35317 ft 352 kts 247°
2026-04-23 15:45 31.81056 118.34176 34706 ft 352 kts 247°
2026-04-23 15:45 31.80047 118.31573 34047 ft 353 kts 246°
2026-04-23 15:46 31.79030 118.28948 33374 ft 354 kts 246°
2026-04-23 15:46 31.78003 118.26310 32700 ft 356 kts 246°
2026-04-23 15:46 31.76981 118.23690 32158 ft 354 kts 246°
2026-04-23 15:46 31.75953 118.21062 31628 ft 352 kts 246°
2026-04-23 15:47 31.74934 118.18458 31079 ft 351 kts 246°
2026-04-23 15:47 31.73921 118.15876 30524 ft 349 kts 246°
2026-04-23 15:47 31.72911 118.13300 29973 ft 348 kts 247°
2026-04-23 15:47 31.71980 118.10682 29392 ft 346 kts 251°
2026-04-23 15:48 31.71259 118.08019 28779 ft 346 kts 255°
2026-04-23 15:48 31.70659 118.05281 28208 ft 344 kts 256°
2026-04-23 15:48 31.70114 118.02572 27666 ft 342 kts 257°
2026-04-23 15:48 31.69575 117.99850 27134 ft 340 kts 257°
2026-04-23 15:49 31.69043 117.97178 26603 ft 338 kts 257°
2026-04-23 15:49 31.68505 117.94504 26084 ft 336 kts 257°
2026-04-23 15:49 31.67962 117.91832 25559 ft 334 kts 257°
2026-04-23 15:49 31.67425 117.89217 25044 ft 333 kts 257°
2026-04-23 15:50 31.66877 117.86559 24528 ft 331 kts 257°
2026-04-23 15:50 31.66334 117.83935 24023 ft 337 kts 257°
2026-04-23 15:50 31.65778 117.81244 23500 ft 346 kts 258°
2026-04-23 15:50 31.65211 117.78509 22947 ft 345 kts 258°
2026-04-23 15:51 31.64642 117.75773 22412 ft 342 kts 258°
2026-04-23 15:51 31.64080 117.73075 21900 ft 340 kts 258°
2026-04-23 15:51 31.63527 117.70426 21380 ft 337 kts 258°
2026-04-23 15:51 31.62970 117.67755 20881 ft 335 kts 258°
2026-04-23 15:52 31.62424 117.65144 20389 ft 332 kts 258°
2026-04-23 15:52 31.61944 117.62478 19877 ft 329 kts 263°
2026-04-23 15:52 31.61819 117.59821 19389 ft 325 kts 274°
2026-04-23 15:52 31.62177 117.57242 18902 ft 322 kts 285°
2026-04-23 15:53 31.62884 117.54758 18415 ft 321 kts 291°
2026-04-23 15:53 31.63859 117.52419 17939 ft 319 kts 300°
2026-04-23 15:53 31.65078 117.50246 17449 ft 319 kts 305°
2026-04-23 15:53 31.66401 117.48154 16955 ft 318 kts 307°
2026-04-23 15:54 31.67729 117.46096 16470 ft 317 kts 307°
2026-04-23 15:54 31.69043 117.44029 15977 ft 316 kts 307°
2026-04-23 15:54 31.70333 117.41956 15495 ft 315 kts 306°
2026-04-23 15:54 31.71616 117.39868 15013 ft 315 kts 307°
2026-04-23 15:55 31.72881 117.37793 14539 ft 313 kts 307°
2026-04-23 15:55 31.74146 117.35712 14071 ft 312 kts 307°
2026-04-23 15:55 31.75415 117.33622 13591 ft 312 kts 307°
2026-04-23 15:55 31.76668 117.31560 13121 ft 311 kts 307°
2026-04-23 15:56 31.77924 117.29494 12651 ft 310 kts 307°
2026-04-23 15:56 31.79185 117.27437 12187 ft 309 kts 308°
2026-04-23 15:56 31.80436 117.25407 11729 ft 308 kts 308°
2026-04-23 15:56 31.81697 117.23363 11325 ft 308 kts 308°
2026-04-23 15:57 31.82971 117.21313 10864 ft 319 kts 309°
2026-04-23 15:57 31.84479 117.19386 10321 ft 315 kts 322°
2026-04-23 15:57 31.86253 117.17981 10099 ft 302 kts 332°
2026-04-23 15:57 31.88070 117.16825 9870 ft 291 kts 335°
2026-04-23 15:58 31.89857 117.15727 9476 ft 289 kts 335°
2026-04-23 15:58 31.91624 117.14612 9090 ft 288 kts 334°
2026-04-23 15:58 31.93373 117.13466 8711 ft 283 kts 333°
2026-04-23 15:58 31.95080 117.12320 8329 ft 278 kts 333°
2026-04-23 15:59 31.96720 117.11208 7991 ft 273 kts 332°
2026-04-23 15:59 31.98375 117.10085 7621 ft 271 kts 333°
2026-04-23 15:59 31.99998 117.08986 7270 ft 269 kts 332°
2026-04-23 15:59 32.01625 117.07885 6899 ft 268 kts 333°
2026-04-23 16:00 32.03250 117.06786 6544 ft 267 kts 332°
2026-04-23 16:00 32.04849 117.05701 6190 ft 265 kts 332°
2026-04-23 16:00 32.06448 117.04616 5837 ft 262 kts 333°
2026-04-23 16:00 32.08001 117.03561 5504 ft 258 kts 333°
2026-04-23 16:01 32.09564 117.02500 5132 ft 255 kts 332°
2026-04-23 16:01 32.11082 117.01470 4815 ft 251 kts 332°
2026-04-23 16:01 32.12608 117.00434 4472 ft 249 kts 333°
2026-04-23 16:01 32.14084 116.99430 4256 ft 241 kts 333°
2026-04-23 16:02 32.15492 116.98471 4190 ft 228 kts 333°
2026-04-23 16:02 32.16854 116.97544 4122 ft 224 kts 333°
2026-04-23 16:02 32.18205 116.96582 4041 ft 225 kts 327°
2026-04-23 16:02 32.19275 116.95258 3950 ft 229 kts 298°
2026-04-23 16:03 32.19624 116.93414 3771 ft 233 kts 265°
2026-04-23 16:03 32.19236 116.91599 3505 ft 228 kts 243°
2026-04-23 16:03 32.18479 116.89957 3253 ft 224 kts 237°
2026-04-23 16:03 32.17643 116.88426 3085 ft 216 kts 229°
2026-04-23 16:04 32.16578 116.87304 3026 ft 199 kts 201°
2026-04-23 16:04 32.15258 116.87018 2932 ft 188 kts 172°
2026-04-23 16:04 32.14023 116.87334 2793 ft 180 kts 156°
2026-04-23 16:04 32.12942 116.88042 2669 ft 177 kts 143°
2026-04-23 16:05 32.12236 116.88582 2563 ft 178 kts 146°
2026-04-23 16:05 32.10821 116.89561 2342 ft 175 kts 147°
2026-04-23 16:05 32.09778 116.90274 2195 ft 168 kts 147°
2026-04-23 16:05 32.08798 116.90941 2053 ft 157 kts 147°
2026-04-23 16:06 32.07861 116.91575 2007 ft 155 kts 148°
2026-04-23 16:06 32.06950 116.92192 1785 ft 147 kts 147°
2026-04-23 16:06 32.06088 116.92774 1585 ft 139 kts 148°
2026-04-23 16:06 32.05250 116.93338 1417 ft 138 kts 148°
2026-04-23 16:07 32.04411 116.93896 1253 ft 141 kts 148°
2026-04-23 16:07 32.03533 116.94473 1074 ft 143 kts 149°
2026-04-23 16:07 32.02669 116.95047 908 ft 144 kts 148°
2026-04-23 16:07 32.01781 116.95649 706 ft 146 kts 148°
2026-04-23 16:08 32.00893 116.96259 492 ft 148 kts 148°
2026-04-23 16:08 31.99995 116.96875 258 ft 150 kts 149°
2026-04-23 16:08 31.99144 116.97446 217 ft 119 kts 147°
2026-04-23 16:08 31.98635 116.97798 216 ft 52 kts 152°
2026-04-23 16:09 31.98384 116.97916 216 ft 29 kts 173°
2026-04-23 16:09 31.98269 116.97922 216 ft 10 kts 179°
2026-04-23 16:09 31.98217 116.97910 216 ft 6 kts 224°
2026-04-23 16:09 31.98207 116.97871 216 ft 4 kts 286°
2026-04-23 16:10 31.98245 116.97830 216 ft 9 kts 328°
2026-04-23 16:10 31.98305 116.97789 216 ft 11 kts 330°
2026-04-23 16:10 31.98377 116.97740 216 ft 12 kts 330°
2026-04-23 16:10 31.98461 116.97683 216 ft 14 kts 330°
2026-04-23 16:11 31.98555 116.97619 216 ft 16 kts 330°
2026-04-23 16:11 31.98659 116.97548 216 ft 17 kts 330°
2026-04-23 16:11 31.98762 116.97479 216 ft 15 kts 330°
2026-04-23 16:11 31.98847 116.97421 216 ft 13 kts 330°
2026-04-23 16:12 31.98918 116.97372 216 ft 10 kts 329°
2026-04-23 16:12 31.98980 116.97330 216 ft 11 kts 330°
2026-04-23 16:12 31.99053 116.97282 216 ft 12 kts 330°
2026-04-23 16:12 31.99112 116.97225 216 ft 10 kts 306°
2026-04-23 16:13 31.99143 116.97149 216 ft 10 kts 285°
2026-04-23 16:13 31.99147 116.97013 216 ft 6 kts 262°
2026-04-23 16:13 31.99136 116.96938 216 ft 12 kts 259°
2026-04-23 16:14 31.99130 116.96840 216 ft 10 kts 274°
2026-04-23 16:14 31.99138 116.96759 216 ft 8 kts 277°
2026-04-23 16:14 31.99143 116.96698 216 ft 6 kts 275°
2026-04-23 16:14 31.99141 116.96654 216 ft 4 kts 243°
2026-04-23 16:15 31.99121 116.96639 216 ft 2 kts 198°
2026-04-23 16:15 31.99104 116.96636 216 ft 2 kts 181°
2026-04-23 16:15 31.99091 116.96635 216 ft 1 kts 181°
2026-04-23 16:15 31.99079 116.96635 216 ft 1 kts 181°
2026-04-23 16:16 31.99068 116.96635 216 ft 1 kts 181°
2026-04-23 16:16 31.99064 116.96635 216 ft 0 kts 181°